If you wish to contribute or participate in the discussions about articles you are invited to join SKYbrary as a registered user

 Actions

Ardabil Airport

From SKYbrary Wiki

OITL
Airport
ICAO: OITL – IATA: ADU
Summary
Name Ardabil Airport
Region Middle East
Territory Iran IR.gif
Location Gilan Deh, Ardabil
Serving Ardabil
Elevation 1,315.212 m
4,315 ft1,315.212 m
Coordinates 38° 19' 26.64" N, 48° 25' 12.54" E
Runways
Designator Length Width Surface ROPS
15/33 3299 m10,823.491 ft
45 m147.638 ft
PEM /


METAR
Observation OITL 161400Z 24014KT 9999 FEW045 SCT060CB BKN200 16/03 Q1010
Station Ardabil
Date/Time 16 April 2019 14:00:00
Wind direction 240°
Wind speed 14 kts
Lowest cloud amount few clouds
Temperature 16°C
Dew point 3°C
Humidity 41%
QNH 1010 hPa
Weather condition n/a

Airport serving Ardabil in north-western Iran.

Climatology

Cold Semi-arid climate (Köppen climate classification BSk).

Maps

Terrain

Loading map...

Airport Layout

Loading map...


Accidents & Serious Incidents at or in vicinity of OITL

None on SKYbrary